����,���ϕ���(m/s),���ϕ���,�ő�u�ԕ���(m/s),�ő啗��������,�C��(��),���x(%),10���Ԉړ��ώZ�J��(mm),1���Ԉړ��ώZ�J��(mm),���J��(mm),�݌v�J��(mm)
2020-12-14T00:00:00+09:00,0.7,���쐼,1.4,���쐼,5,76.7,0,0,0,0
2020-12-14T00:01:00+09:00,0.6,���쐼,1.4,��,5.3,77.5,0,0,0,0
2020-12-14T00:02:00+09:00,0.6,���쐼,1.4,��,5.4,77,0,0,0,0
2020-12-14T00:03:00+09:00,0.5,���쐼,1.4,��,5.3,75.5,0,0,0,0
2020-12-14T00:04:00+09:00,0.5,���쐼,1.2,�k��,5.5,76.2,0,0,0,0
2020-12-14T00:05:00+09:00,0.5,�쐼,1.2,�k��,5.8,76.3,0,0,0,0
2020-12-14T00:06:00+09:00,0.4,��,0.8,��쓌,5.8,75,0,0,0,0
2020-12-14T00:07:00+09:00,0.4,��,0.8,��쓌,5.6,74.6,0,0,0,0
2020-12-14T00:08:00+09:00,0.3,��쐼,0.8,��쓌,5.4,74.4,0,0,0,0
2020-12-14T00:09:00+09:00,0.4,��쐼,1.4,��쓌,5.3,75.4,0,0,0,0
2020-12-14T00:10:00+09:00,0.5,��,1.9,�쓌,5.3,77.2,0,0,0,0
2020-12-14T00:11:00+09:00,0.6,��,1.9,�쓌,5.6,77.7,0,0,0,0
2020-12-14T00:12:00+09:00,0.7,��,1.9,�쓌,5.3,76.7,0,0,0,0
2020-12-14T00:13:00+09:00,0.8,��,1.9,�쓌,5.3,76.9,0,0,0,0
2020-12-14T00:14:00+09:00,0.8,��쐼,1.9,�쓌,5.4,77.9,0,0,0,0
2020-12-14T00:15:00+09:00,0.9,��쐼,1.9,�쓌,5.8,78,0,0,0,0
2020-12-14T00:16:00+09:00,0.9,��쐼,1.9,�쓌,6.3,75.5,0,0,0,0
2020-12-14T00:17:00+09:00,0.9,��쐼,1.9,�쓌,6.6,72.7,0,0,0,0
2020-12-14T00:18:00+09:00,0.9,�쐼,1.9,�쓌,6.6,71.4,0,0,0,0
2020-12-14T00:19:00+09:00,0.8,�쐼,1.9,�쓌,6.1,71.5,0,0,0,0
2020-12-14T00:20:00+09:00,0.8,���쐼,2,�쐼,5.7,73.6,0,0,0,0
2020-12-14T00:21:00+09:00,0.8,���쐼,2,�쐼,5.5,75.4,0,0,0,0
2020-12-14T00:22:00+09:00,0.8,���쐼,2,�쐼,5.5,77.1,0,0,0,0
2020-12-14T00:23:00+09:00,0.8,���쐼,2,�쐼,6.2,77.5,0,0,0,0
2020-12-14T00:24:00+09:00,0.8,���쐼,2,�쐼,6.3,74.4,0,0,0,0
2020-12-14T00:25:00+09:00,0.9,���쐼,2,�쐼,6,73.6,0,0,0,0
2020-12-14T00:26:00+09:00,1,���쐼,2,�쐼,6.1,73.9,0,0,0,0
2020-12-14T00:27:00+09:00,1.2,���쐼,2,�쐼,6,73.6,0,0,0,0
2020-12-14T00:28:00+09:00,1.4,���쐼,2.8,��,5.8,73.6,0,0,0,0
2020-12-14T00:29:00+09:00,1.5,���쐼,2.8,��,5.8,75.2,0,0,0,0
2020-12-14T00:30:00+09:00,1.6,�쐼,3,��쐼,6.1,75.9,0,0,0,0
2020-12-14T00:31:00+09:00,1.7,�쐼,3,��쐼,6.4,75.1,0,0,0,0
2020-12-14T00:32:00+09:00,1.8,�쐼,3,��쐼,6.9,73,0,0,0,0
2020-12-14T00:33:00+09:00,1.9,�쐼,3,��쐼,7.1,70.4,0,0,0,0
2020-12-14T00:34:00+09:00,2,�쐼,3,��쐼,6.9,69.8,0,0,0,0
2020-12-14T00:35:00+09:00,2,��쐼,3,��쐼,6.8,70.1,0,0,0,0
2020-12-14T00:36:00+09:00,2.1,��쐼,3,��쐼,6.8,70.3,0,0,0,0
2020-12-14T00:37:00+09:00,2.2,��쐼,3,��쐼,6.9,69.6,0,0,0,0
2020-12-14T00:38:00+09:00,2.2,��쐼,3,��쐼,7,69.2,0,0,0,0
2020-12-14T00:39:00+09:00,2.3,��쐼,3.1,��,6.9,68.6,0,0,0,0
2020-12-14T00:40:00+09:00,2.3,��쐼,3.7,��쐼,6.9,68.8,0,0,0,0
2020-12-14T00:41:00+09:00,2.4,��쐼,4.4,��쐼,6.8,68.7,0,0,0,0
2020-12-14T00:42:00+09:00,2.6,��쐼,6.3,�쐼,6.9,68.4,0,0,0,0
2020-12-14T00:43:00+09:00,2.8,��쐼,6.3,�쐼,7.1,68.2,0,0,0,0
2020-12-14T00:44:00+09:00,3.1,��쐼,6.3,�쐼,7.5,65.9,0,0,0,0
2020-12-14T00:45:00+09:00,3.3,��쐼,6.7,��쐼,7.7,64.1,0,0,0,0
2020-12-14T00:46:00+09:00,3.6,��쐼,7,�쐼,7.7,63,0,0,0,0
2020-12-14T00:47:00+09:00,3.9,��쐼,8.6,�쐼,7.9,61.7,0,0,0,0
2020-12-14T00:48:00+09:00,3.9,��쐼,8.6,�쐼,7.8,61.2,0,0,0,0
2020-12-14T00:49:00+09:00,4.2,��쐼,8.6,�쐼,8,60.6,0,0,0,0
2020-12-14T00:50:00+09:00,4.6,��쐼,9.4,��쐼,8.2,59.3,0,0,0,0
2020-12-14T00:51:00+09:00,5,��쐼,9.4,��쐼,8.3,58.3,0,0,0,0
2020-12-14T00:52:00+09:00,5.1,��쐼,9.4,��쐼,8.3,57.8,0,0,0,0
2020-12-14T00:53:00+09:00,5.3,��쐼,10.1,��,8.2,57.7,0,0,0,0
2020-12-14T00:54:00+09:00,5.6,��쐼,10.1,��,8.2,58,0,0,0,0
2020-12-14T00:55:00+09:00,5.7,��쐼,10.1,��,8.4,57.2,0,0,0,0
2020-12-14T00:56:00+09:00,5.8,��쐼,10.1,��,8.4,56.9,0,0,0,0
2020-12-14T00:57:00+09:00,6,��쐼,10.1,��,8.5,56.4,0,0,0,0
2020-12-14T00:58:00+09:00,6.3,��쐼,10.1,��,8.4,56.2,0,0,0,0
2020-12-14T00:59:00+09:00,6.7,��쐼,13.5,��쐼,8.5,56,0,0,0,0
2020-12-14T01:00:00+09:00,6.6,��쐼,13.5,��쐼,8.5,55.6,0,0,0,0
2020-12-14T01:01:00+09:00,6.7,��쐼,13.5,��쐼,8.5,55.5,0,0,0,0
2020-12-14T01:02:00+09:00,6.8,��쐼,13.5,��쐼,8.6,55,0,0,0,0
2020-12-14T01:03:00+09:00,6.7,��쐼,13.5,��쐼,8.6,54.9,0,0,0,0
2020-12-14T01:04:00+09:00,6.5,��쐼,13.5,��쐼,8.7,54.9,0,0,0,0
2020-12-14T01:05:00+09:00,6.5,��쐼,13.5,��쐼,8.7,54.7,0,0,0,0
2020-12-14T01:06:00+09:00,6.6,��쐼,13.5,��쐼,8.7,54.6,0,0,0,0
2020-12-14T01:07:00+09:00,6.7,��쐼,13.5,��쐼,8.7,54.7,0,0,0,0
2020-12-14T01:08:00+09:00,6.7,��쐼,13.5,��쐼,8.6,55,0,0,0,0
2020-12-14T01:09:00+09:00,6.4,��쐼,13.1,��쐼,8.7,55,0,0,0,0
2020-12-14T01:10:00+09:00,6.3,��쐼,13.1,��쐼,8.7,54.7,0,0,0,0
2020-12-14T01:11:00+09:00,6.2,��쐼,12.6,��,8.7,54.9,0,0,0,0
2020-12-14T01:12:00+09:00,6,��쐼,12.6,��,8.8,54.8,0,0,0,0
2020-12-14T01:13:00+09:00,6.1,��쐼,12.6,��,8.8,54.8,0,0,0,0
2020-12-14T01:14:00+09:00,6,��쐼,12.6,��,8.8,54.8,0,0,0,0
2020-12-14T01:15:00+09:00,5.8,��쐼,11.9,�쐼,8.8,54.9,0,0,0,0
2020-12-14T01:16:00+09:00,5.8,��쐼,10,��쐼,8.8,54.7,0,0,0,0
2020-12-14T01:17:00+09:00,5.5,��쐼,10,��쐼,8.8,54.6,0,0,0,0
2020-12-14T01:18:00+09:00,5.5,�쐼,10,��쐼,8.8,54.7,0,0,0,0
2020-12-14T01:19:00+09:00,5.4,�쐼,10,��쐼,8.8,54.8,0,0,0,0
2020-12-14T01:20:00+09:00,5.4,��쐼,10,��쐼,8.9,54.7,0,0,0,0
2020-12-14T01:21:00+09:00,5.4,��쐼,13.8,��쐼,8.9,54.7,0,0,0,0
2020-12-14T01:22:00+09:00,5.5,��쐼,13.8,��쐼,9,54.5,0,0,0,0
2020-12-14T01:23:00+09:00,5.5,��쐼,13.8,��쐼,8.9,54.5,0,0,0,0
2020-12-14T01:24:00+09:00,5.5,��쐼,13.8,��쐼,8.9,54.4,0,0,0,0
2020-12-14T01:25:00+09:00,5.5,��쐼,13.8,��쐼,8.9,54.6,0,0,0,0
2020-12-14T01:26:00+09:00,5.3,��쐼,13.8,��쐼,8.9,54.8,0,0,0,0
2020-12-14T01:27:00+09:00,5.3,��쐼,13.8,��쐼,8.9,54.9,0,0,0,0
2020-12-14T01:28:00+09:00,5.1,��쐼,13.8,��쐼,8.9,54.9,0,0,0,0
2020-12-14T01:29:00+09:00,5.2,��쐼,13.8,��쐼,8.9,54.9,0,0,0,0
2020-12-14T01:30:00+09:00,5.2,��쐼,13.8,��쐼,8.9,54.8,0,0,0,0
2020-12-14T01:31:00+09:00,5.1,��쐼,8.6,��쐼,8.9,54.7,0,0,0,0
2020-12-14T01:32:00+09:00,5,��쐼,8.6,��쐼,8.9,54.8,0,0,0,0
2020-12-14T01:33:00+09:00,4.9,��쐼,8.6,��쐼,8.9,54.8,0,0,0,0
2020-12-14T01:34:00+09:00,4.8,��쐼,8.6,��쐼,8.9,54.9,0,0,0,0
2020-12-14T01:35:00+09:00,4.9,��쐼,8.6,��쐼,8.9,55,0,0,0,0
2020-12-14T01:36:00+09:00,4.9,��쐼,8.6,��쐼,8.9,54.9,0,0,0,0
2020-12-14T01:37:00+09:00,4.9,��쐼,8.6,��쐼,8.9,54.8,0,0,0,0
2020-12-14T01:38:00+09:00,5,��쐼,8.6,��쐼,8.9,54.8,0,0,0,0
2020-12-14T01:39:00+09:00,4.7,��쐼,8,��쐼,8.9,54.9,0,0,0,0
2020-12-14T01:40:00+09:00,4.6,��쐼,8,��쐼,8.9,55.3,0,0,0,0
2020-12-14T01:41:00+09:00,4.6,��쐼,8,��쐼,8.9,55.6,0,0,0,0
2020-12-14T01:42:00+09:00,4.7,��쐼,8,��쐼,9,55.6,0,0,0,0
2020-12-14T01:43:00+09:00,4.5,��쐼,8,��쐼,9,55.4,0,0,0,0
2020-12-14T01:44:00+09:00,4.3,��쐼,8,��쐼,9,55.4,0,0,0,0
2020-12-14T01:45:00+09:00,4.3,��쐼,8,��쐼,9,55.3,0,0,0,0
2020-12-14T01:46:00+09:00,4.2,��쐼,7.8,��쐼,9,55.3,0,0,0,0
2020-12-14T01:47:00+09:00,4.2,��쐼,7.8,��쐼,9.1,55.7,0,0,0,0
2020-12-14T01:48:00+09:00,4.1,��쐼,7.8,��쐼,9.1,57,0,0,0,0
2020-12-14T01:49:00+09:00,4.1,��쐼,7.8,��쐼,9,57.1,0,0,0,0
2020-12-14T01:50:00+09:00,3.8,��쐼,7.6,��쐼,9,56.8,0,0,0,0
2020-12-14T01:51:00+09:00,3.7,��쐼,7.6,��쐼,9,56.5,0,0,0,0
2020-12-14T01:52:00+09:00,3.5,��쐼,7.6,��쐼,8.9,56.3,0,0,0,0
2020-12-14T01:53:00+09:00,3.5,��쐼,7.6,��쐼,8.9,56.3,0,0,0,0
2020-12-14T01:54:00+09:00,3.4,�쐼,7.6,��쐼,8.9,56.6,0,0,0,0
2020-12-14T01:55:00+09:00,3.2,�쐼,7.6,��쐼,9,56.5,0,0,0,0
2020-12-14T01:56:00+09:00,3.3,�쐼,7.6,��쐼,9.1,56.6,0,0,0,0
2020-12-14T01:57:00+09:00,3.2,�쐼,7.3,��,9,56.5,0,0,0,0
2020-12-14T01:58:00+09:00,3.3,�쐼,7.3,��,9,56.4,0,0,0,0
2020-12-14T01:59:00+09:00,3.3,��쐼,7.3,��,9.1,55.9,0,0,0,0
2020-12-14T02:00:00+09:00,3.4,��쐼,7.3,��,9,56.1,0,0,0,0
2020-12-14T02:01:00+09:00,3.4,��쐼,7.3,��,8.9,56.6,0,0,0,0
2020-12-14T02:02:00+09:00,3.6,�쐼,8.5,���쐼,9,56.6,0,0,0,0
2020-12-14T02:03:00+09:00,3.9,�쐼,8.5,���쐼,9.1,56.8,0,0,0,0
2020-12-14T02:04:00+09:00,4,�쐼,8.5,���쐼,9.1,56.6,0,0,0,0
2020-12-14T02:05:00+09:00,4.1,��쐼,8.5,���쐼,9.1,56.4,0,0,0,0
2020-12-14T02:06:00+09:00,3.9,��쐼,8.5,���쐼,9,56.5,0,0,0,0
2020-12-14T02:07:00+09:00,3.9,��쐼,8.5,���쐼,8.7,57.7,0,0,0,0
2020-12-14T02:08:00+09:00,3.8,�쐼,8.5,���쐼,8.8,58.7,0,0,0,0
2020-12-14T02:09:00+09:00,3.8,�쐼,8.5,���쐼,8.9,58.1,0,0,0,0
2020-12-14T02:10:00+09:00,3.8,�쐼,8.5,���쐼,8.7,58.6,0,0,0,0
2020-12-14T02:11:00+09:00,3.7,�쐼,8.5,���쐼,8.4,59.3,0,0,0,0
2020-12-14T02:12:00+09:00,3.6,�쐼,7.3,�쐼,8.7,60.1,0,0,0,0
2020-12-14T02:13:00+09:00,3.6,�쐼,7.7,�쐼,8.8,59.4,0,0,0,0
2020-12-14T02:14:00+09:00,3.9,�쐼,8.1,��쐼,9,58.7,0,0,0,0
2020-12-14T02:15:00+09:00,4.1,�쐼,8.1,��쐼,9,58.3,0,0,0,0
2020-12-14T02:16:00+09:00,4.1,�쐼,8.1,��쐼,8.9,58.5,0,0,0,0
2020-12-14T02:17:00+09:00,4.1,�쐼,8.1,��쐼,8.8,58.8,0,0,0,0
2020-12-14T02:18:00+09:00,4.2,�쐼,8.1,��쐼,8.8,59.2,0,0,0,0
2020-12-14T02:19:00+09:00,4.3,�쐼,8.1,��쐼,8.8,59.8,0,0,0,0
2020-12-14T02:20:00+09:00,4.2,�쐼,8.1,��쐼,8.8,59.9,0,0,0,0
2020-12-14T02:21:00+09:00,4.2,�쐼,8.1,��쐼,8.7,60.1,0,0,0,0
2020-12-14T02:22:00+09:00,3.9,�쐼,8.1,��쐼,8.7,60.9,0,0,0,0
2020-12-14T02:23:00+09:00,3.7,���쐼,8.1,��쐼,8.7,60.9,0,0,0,0
2020-12-14T02:24:00+09:00,3.5,���쐼,7.5,�쐼,8.7,60.5,0,0,0,0
2020-12-14T02:25:00+09:00,3.3,���쐼,6.2,��,8.8,60.6,0,0,0,0
2020-12-14T02:26:00+09:00,3.4,���쐼,6.2,��,8.9,60.6,0,0,0,0
2020-12-14T02:27:00+09:00,3.4,�쐼,6.2,��,8.9,59.6,0,0,0,0
2020-12-14T02:28:00+09:00,3.3,�쐼,6.2,��,8.9,58.9,0,0,0,0
2020-12-14T02:29:00+09:00,3.3,�쐼,6.2,��,9,59,0,0,0,0
2020-12-14T02:30:00+09:00,3.3,�쐼,6.2,��,9,58.7,0,0,0,0
2020-12-14T02:31:00+09:00,3.4,�쐼,6.2,��,8.9,58.9,0,0,0,0
2020-12-14T02:32:00+09:00,3.6,�쐼,6.9,��쐼,8.9,59.8,0,0,0,0
2020-12-14T02:33:00+09:00,4,�쐼,7.9,�쐼,8.9,59.9,0,0,0,0
2020-12-14T02:34:00+09:00,4.1,�쐼,8,��쐼,9,60,0,0,0,0
2020-12-14T02:35:00+09:00,4.2,�쐼,8,��쐼,9,60.1,0,0,0,0
2020-12-14T02:36:00+09:00,4.4,�쐼,9.4,���쐼,9,60.1,0,0,0,0
2020-12-14T02:37:00+09:00,4.5,�쐼,9.4,���쐼,9,59.5,0,0,0,0
2020-12-14T02:38:00+09:00,4.5,�쐼,9.4,���쐼,9,59.8,0,0,0,0
2020-12-14T02:39:00+09:00,4.7,�쐼,9.4,���쐼,9,59.6,0,0,0,0
2020-12-14T02:40:00+09:00,4.7,�쐼,9.4,���쐼,9,59.3,0,0,0,0
2020-12-14T02:41:00+09:00,4.7,�쐼,9.4,���쐼,9,59.4,0,0,0,0
2020-12-14T02:42:00+09:00,4.7,�쐼,9.4,���쐼,9,59.1,0,0,0,0
2020-12-14T02:43:00+09:00,4.6,�쐼,9.4,���쐼,9,59,0,0,0,0
2020-12-14T02:44:00+09:00,4.3,�쐼,9.4,���쐼,8.9,59.5,0,0,0,0
2020-12-14T02:45:00+09:00,4,�쐼,9.4,���쐼,8.9,60.1,0,0,0,0
2020-12-14T02:46:00+09:00,3.8,�쐼,9.4,��쐼,8.9,59.5,0,0,0,0
2020-12-14T02:47:00+09:00,3.6,�쐼,7,�쐼,8.9,59.2,0,0,0,0
2020-12-14T02:48:00+09:00,3.5,�쐼,7,�쐼,8.8,59.1,0,0,0,0
2020-12-14T02:49:00+09:00,3.3,�쐼,6.6,�쐼,8.8,59.3,0,0,0,0
2020-12-14T02:50:00+09:00,3.2,��쐼,6.4,�쐼,8.7,59.2,0,0,0,0
2020-12-14T02:51:00+09:00,3.4,��쐼,8.4,��,8.7,59.4,0,0,0,0
2020-12-14T02:52:00+09:00,3.4,��쐼,8.4,��,8.7,59.5,0,0,0,0
2020-12-14T02:53:00+09:00,3.5,��쐼,8.4,��,8.7,59.5,0,0,0,0
2020-12-14T02:54:00+09:00,3.6,��쐼,8.4,��,8.8,59.2,0,0,0,0
2020-12-14T02:55:00+09:00,3.7,��쐼,8.4,��,8.8,59,0,0,0,0
2020-12-14T02:56:00+09:00,3.5,��,8.4,��,8.7,59.2,0,0,0,0
2020-12-14T02:57:00+09:00,3.7,��쐼,8.4,��,8.7,59.5,0,0,0,0
2020-12-14T02:58:00+09:00,3.8,��쐼,8.4,��,8.7,59.5,0,0,0,0
2020-12-14T02:59:00+09:00,3.8,��쐼,8.4,��,8.8,59.4,0,0,0,0
2020-12-14T03:00:00+09:00,3.8,��쐼,8.4,��,8.8,59.4,0,0,0,0
2020-12-14T03:01:00+09:00,3.6,��쐼,7.4,��쐼,8.7,59.2,0,0,0,0
2020-12-14T03:02:00+09:00,3.5,��쐼,7.4,��쐼,8.8,59.6,0,0,0,0
2020-12-14T03:03:00+09:00,3.2,��쐼,6.3,�쐼,8.8,59.5,0,0,0,0
2020-12-14T03:04:00+09:00,2.9,��쐼,6.1,��쐼,8.8,59.1,0,0,0,0
2020-12-14T03:05:00+09:00,2.9,��쐼,6.1,��쐼,8.8,59.3,0,0,0,0
2020-12-14T03:06:00+09:00,2.9,��쐼,6.1,��쐼,8.7,59.1,0,0,0,0
2020-12-14T03:07:00+09:00,2.8,��쐼,5.8,��,8.8,59.2,0,0,0,0
2020-12-14T03:08:00+09:00,2.6,��쐼,5.8,��,8.8,59,0,0,0,0
2020-12-14T03:09:00+09:00,2.5,��쐼,5.8,��,8.7,59.2,0,0,0,0
2020-12-14T03:10:00+09:00,2.3,�쐼,5,���쐼,8.6,59.8,0,0,0,0
2020-12-14T03:11:00+09:00,2.2,�쐼,5,���쐼,8.6,59.9,0,0,0,0
2020-12-14T03:12:00+09:00,2,�쐼,4.5,��쐼,8.6,59.7,0,0,0,0
2020-12-14T03:13:00+09:00,1.8,�쐼,4.5,��쐼,8.4,60.1,0,0,0,0
2020-12-14T03:14:00+09:00,1.8,�쐼,4.5,��쐼,8.3,60.9,0,0,0,0
2020-12-14T03:15:00+09:00,1.6,���쐼,4.5,��쐼,8,61.8,0,0,0,0
2020-12-14T03:16:00+09:00,1.5,���쐼,4.5,��쐼,8.1,62.5,0,0,0,0
2020-12-14T03:17:00+09:00,1.4,���쐼,4.2,��쐼,8.1,62.6,0,0,0,0
2020-12-14T03:18:00+09:00,1.3,���쐼,4.2,��쐼,8.2,62.3,0,0,0,0
2020-12-14T03:19:00+09:00,1.2,���쐼,4.2,��쐼,7.9,63,0,0,0,0
2020-12-14T03:20:00+09:00,1.3,���쐼,4.2,��쐼,7.6,64.2,0,0,0,0
2020-12-14T03:21:00+09:00,1.2,��,4.2,��쐼,7.7,64.9,0,0,0,0
2020-12-14T03:22:00+09:00,1.2,��,4.2,��쐼,7.5,65.1,0,0,0,0
2020-12-14T03:23:00+09:00,1.2,��,4.2,��쐼,7.3,65.6,0,0,0,0
2020-12-14T03:24:00+09:00,1.2,��,4.2,��쐼,7.2,66.2,0,0,0,0
2020-12-14T03:25:00+09:00,1.3,��,4.2,��쐼,7.2,67.1,0,0,0,0
2020-12-14T03:26:00+09:00,1.3,��,4.2,��쐼,7.3,67.7,0,0,0,0
2020-12-14T03:27:00+09:00,1.3,��,3.3,��쐼,7.2,67.8,0,0,0,0
2020-12-14T03:28:00+09:00,1.3,��,2.7,��,7.2,68,0,0,0,0
2020-12-14T03:29:00+09:00,1.3,��,2.7,��,7.1,68.6,0,0,0,0
2020-12-14T03:30:00+09:00,1.4,��,2.8,��,7.3,69,0,0,0,0
2020-12-14T03:31:00+09:00,1.4,��,3.3,��쐼,7.8,67.3,0,0,0,0
2020-12-14T03:32:00+09:00,1.5,��,3.3,��쐼,8.1,65.3,0,0,0,0
2020-12-14T03:33:00+09:00,1.6,��,3.3,��쐼,8.2,63.9,0,0,0,0
2020-12-14T03:34:00+09:00,1.6,���쐼,3.3,��쐼,8.2,63.3,0,0,0,0
2020-12-14T03:35:00+09:00,1.6,���쐼,3.3,��쐼,7.9,62.9,0,0,0,0
2020-12-14T03:36:00+09:00,1.5,���쐼,3.3,��쐼,7.5,64.1,0,0,0,0
2020-12-14T03:37:00+09:00,1.5,���쐼,3.3,��쐼,7.4,65.5,0,0,0,0
2020-12-14T03:38:00+09:00,1.5,���쐼,3.3,��쐼,7.4,66.1,0,0,0,0
2020-12-14T03:39:00+09:00,1.5,���쐼,3.3,��쐼,7.5,66.3,0,0,0,0
2020-12-14T03:40:00+09:00,1.4,���쐼,3.3,��쐼,7.3,66.4,0,0,0,0
2020-12-14T03:41:00+09:00,1.3,���쐼,3.2,�쐼,7.2,67.2,0,0,0,0
2020-12-14T03:42:00+09:00,1.2,���쐼,2.6,�쐼,7.4,67.3,0,0,0,0
2020-12-14T03:43:00+09:00,1.1,���쐼,2.5,��,7.5,66.8,0,0,0,0
2020-12-14T03:44:00+09:00,1.1,��,2.5,��,7.2,67.6,0,0,0,0
2020-12-14T03:45:00+09:00,1.1,��,2.5,��,7.2,68.6,0,0,0,0
2020-12-14T03:46:00+09:00,1.1,��,2.5,��,7.1,68.3,0,0,0,0
2020-12-14T03:47:00+09:00,1,��,2.5,��,6.8,68.7,0,0,0,0
2020-12-14T03:48:00+09:00,1,��,2.5,��,6.6,69.3,0,0,0,0
2020-12-14T03:49:00+09:00,1,���쐼,2.5,��,6.5,69.7,0,0,0,0
2020-12-14T03:50:00+09:00,0.9,���쐼,2.2,��,6.4,70.4,0,0,0,0
2020-12-14T03:51:00+09:00,0.8,���쐼,1.9,�쐼,6.9,72.3,0,0,0,0
2020-12-14T03:52:00+09:00,0.7,��,1.3,�쓌,6.5,70.3,0,0,0,0
2020-12-14T03:53:00+09:00,0.7,��,1.3,�쓌,6.3,70.8,0,0,0,0
2020-12-14T03:54:00+09:00,0.7,��,1.3,�쓌,6.2,71.8,0,0,0,0
2020-12-14T03:55:00+09:00,0.6,���k��,1.3,�쓌,6.1,72.3,0,0,0,0
2020-12-14T03:56:00+09:00,0.6,���k��,1.3,�쓌,6.2,72.9,0,0,0,0
2020-12-14T03:57:00+09:00,0.6,���k��,1.3,�쓌,6.2,73,0,0,0,0
2020-12-14T03:58:00+09:00,0.5,���k��,1.2,��쓌,6.1,73.2,0,0,0,0
2020-12-14T03:59:00+09:00,0.5,���k��,1.2,��,6.2,73.3,0,0,0,0
2020-12-14T04:00:00+09:00,0.5,���k��,1.2,��,6.2,73.3,0,0,0,0
2020-12-14T04:01:00+09:00,0.6,���k��,1.4,�k��,6.2,73.1,0,0,0,0
2020-12-14T04:02:00+09:00,0.7,�k��,1.4,�k��,6.2,72.9,0,0,0,0
2020-12-14T04:03:00+09:00,0.8,�k��,1.9,�k�k��,6.1,72.5,0,0,0,0
2020-12-14T04:04:00+09:00,0.8,�k��,1.9,�k�k��,6.1,72.9,0,0,0,0
2020-12-14T04:05:00+09:00,0.9,�k��,1.9,�k�k��,6,73.1,0,0,0,0
2020-12-14T04:06:00+09:00,0.9,�k��,1.9,�k�k��,5.9,73.4,0,0,0,0
2020-12-14T04:07:00+09:00,0.8,�k��,1.9,�k�k��,6.3,74.3,0,0,0,0
2020-12-14T04:08:00+09:00,0.8,�k��,1.9,�k�k��,6.4,73.6,0,0,0,0
2020-12-14T04:09:00+09:00,0.8,�k��,1.9,�k�k��,6.2,72.3,0,0,0,0
2020-12-14T04:10:00+09:00,0.8,�k��,1.9,�k�k��,5.9,72.7,0,0,0,0
2020-12-14T04:11:00+09:00,0.8,�k��,1.9,�k�k��,5.9,73.5,0,0,0,0
2020-12-14T04:12:00+09:00,0.8,�k��,1.9,�k�k��,6.1,74,0,0,0,0
2020-12-14T04:13:00+09:00,0.7,�k��,1.7,�k�k��,6,73.7,0,0,0,0
2020-12-14T04:14:00+09:00,0.7,���k��,1.5,�쓌,6,73.7,0,0,0,0
2020-12-14T04:15:00+09:00,0.7,���k��,1.5,�쓌,6,73.7,0,0,0,0
2020-12-14T04:16:00+09:00,0.7,��,1.5,�쓌,6,73.9,0,0,0,0
2020-12-14T04:17:00+09:00,0.7,��,1.5,�쓌,6,73.9,0,0,0,0
2020-12-14T04:18:00+09:00,0.7,��,1.5,�쓌,6.1,74.3,0,0,0,0
2020-12-14T04:19:00+09:00,0.7,���k��,1.2,�k,6.2,74.4,0,0,0,0
2020-12-14T04:20:00+09:00,0.6,���k��,1.2,�k,6.2,73.8,0,0,0,0
2020-12-14T04:21:00+09:00,0.6,���k��,1.2,�k,6.2,73.5,0,0,0,0
2020-12-14T04:22:00+09:00,0.6,���k��,1.1,�k,6.4,74,0,0,0,0
2020-12-14T04:23:00+09:00,0.5,���k��,1.1,�k,6.1,72.9,0,0,0,0
2020-12-14T04:24:00+09:00,0.5,���k��,1.1,�k,5.8,72.8,0,0,0,0
2020-12-14T04:25:00+09:00,0.4,���k��,1.1,�k,5.8,73.8,0,0,0,0
2020-12-14T04:26:00+09:00,0.4,�k��,1.1,�k,5.8,74.5,0,0,0,0
2020-12-14T04:27:00+09:00,0.4,�k��,1.1,�k,5.8,74.4,0,0,0,0
2020-12-14T04:28:00+09:00,0.5,���k��,1.2,�쓌,5.8,75,0,0,0,0
2020-12-14T04:29:00+09:00,0.5,���k��,1.2,�쓌,5.8,75.4,0,0,0,0
2020-12-14T04:30:00+09:00,0.6,���k��,1.2,�쓌,5.7,75.1,0,0,0,0
2020-12-14T04:31:00+09:00,0.5,��,1.2,�쓌,5.7,75.3,0,0,0,0
2020-12-14T04:32:00+09:00,0.6,��,1.2,�쓌,5.8,75.5,0,0,0,0
2020-12-14T04:33:00+09:00,0.6,��,1.2,�쓌,5.8,75.7,0,0,0,0
2020-12-14T04:34:00+09:00,0.7,��,1.3,���k��,5.7,75.4,0,0,0,0
2020-12-14T04:35:00+09:00,0.7,��,1.3,���k��,5.5,75.4,0,0,0,0
2020-12-14T04:36:00+09:00,0.7,��,1.3,���k��,5.6,76.3,0,0,0,0
2020-12-14T04:37:00+09:00,0.7,��,1.4,���쓌,5.6,76.4,0,0,0,0
2020-12-14T04:38:00+09:00,0.7,��,1.4,���쓌,5.4,76.1,0,0,0,0
2020-12-14T04:39:00+09:00,0.7,��,1.4,���쓌,5.4,76.8,0,0,0,0
2020-12-14T04:40:00+09:00,0.7,���쓌,1.4,���쓌,5.4,77.6,0,0,0,0
2020-12-14T04:41:00+09:00,0.8,���쓌,1.4,���쓌,5.5,78.2,0,0,0,0
2020-12-14T04:42:00+09:00,0.9,���쓌,1.8,��쓌,5.5,78.3,0,0,0,0
2020-12-14T04:43:00+09:00,1,�쓌,1.8,��쓌,5.6,78.3,0,0,0,0
2020-12-14T04:44:00+09:00,1,�쓌,1.8,��쓌,5.7,79.1,0,0,0,0
2020-12-14T04:45:00+09:00,1,�쓌,1.8,��쓌,5.6,78.5,0,0,0,0
2020-12-14T04:46:00+09:00,1,�쓌,1.8,��쓌,5.5,78.6,0,0,0,0
2020-12-14T04:47:00+09:00,1,�쓌,1.8,��쓌,5.5,78.9,0,0,0,0
2020-12-14T04:48:00+09:00,1.1,�쓌,1.8,��쓌,5.6,78.7,0,0,0,0
2020-12-14T04:49:00+09:00,1.1,�쓌,1.8,��쓌,5.5,77.9,0,0,0,0
2020-12-14T04:50:00+09:00,1,�쓌,1.8,��쓌,5.4,77.8,0,0,0,0
2020-12-14T04:51:00+09:00,0.9,���쓌,1.8,��쓌,5.2,77.4,0,0,0,0
2020-12-14T04:52:00+09:00,0.8,���쓌,1.7,�쓌,5.3,78.3,0,0,0,0
2020-12-14T04:53:00+09:00,0.7,��,1.6,���쓌,5.1,78,0,0,0,0
2020-12-14T04:54:00+09:00,0.6,��,1.6,���쓌,5.2,78.5,0,0,0,0
2020-12-14T04:55:00+09:00,0.5,���k��,1.6,���쓌,5.3,79.5,0,0,0,0
2020-12-14T04:56:00+09:00,0.5,���k��,1.6,���쓌,5.4,78.9,0,0,0,0
2020-12-14T04:57:00+09:00,0.4,�k��,1.6,���쓌,5.5,79,0,0,0,0
2020-12-14T04:58:00+09:00,0.3,�k��,1,��,5.5,78.6,0,0,0,0
2020-12-14T04:59:00+09:00,0.4,�k��,1.4,�k��,5.7,78.7,0,0,0,0
2020-12-14T05:00:00+09:00,0.5,�k�k��,1.7,�k�k��,5.7,78.1,0,0,0,0
2020-12-14T05:01:00+09:00,0.5,�k�k��,1.7,�k�k��,5.6,76.9,0,0,0,0
2020-12-14T05:02:00+09:00,0.6,�k,1.7,�k�k��,5.8,77.3,0,0,0,0
2020-12-14T05:03:00+09:00,0.6,�k�k��,1.7,�k�k��,5.7,76.3,0,0,0,0
2020-12-14T05:04:00+09:00,0.8,�k�k��,2.5,���쓌,5.1,75.1,0,0,0,0
2020-12-14T05:05:00+09:00,1,�k�k��,2.5,���쓌,4.9,76.9,0,0,0,0
2020-12-14T05:06:00+09:00,1,�k�k��,2.5,���쓌,4.9,78.5,0,0,0,0
2020-12-14T05:07:00+09:00,1,�k�k��,2.5,���쓌,5,79.4,0,0,0,0
2020-12-14T05:08:00+09:00,1,�k�k��,2.5,���쓌,5.1,79.6,0,0,0,0
2020-12-14T05:09:00+09:00,1,�k��,2.5,���쓌,5.2,79.5,0,0,0,0
2020-12-14T05:10:00+09:00,1,���k��,2.5,���쓌,5.2,79.5,0,0,0,0
2020-12-14T05:11:00+09:00,1.1,���k��,2.5,���쓌,5.1,79,0,0,0,0
2020-12-14T05:12:00+09:00,1.2,��,2.5,���쓌,5,79.5,0,0,0,0
2020-12-14T05:13:00+09:00,1.2,��,2.5,���쓌,5,79.8,0,0,0,0
2020-12-14T05:14:00+09:00,1.1,��,2.4,���쓌,5,79.9,0,0,0,0
2020-12-14T05:15:00+09:00,1,��,2.3,��,5,79.9,0,0,0,0
2020-12-14T05:16:00+09:00,1,��,2.3,��,5,80.4,0,0,0,0
2020-12-14T05:17:00+09:00,1,��,2.3,��,5,80.3,0,0,0,0
2020-12-14T05:18:00+09:00,1,��,2.3,��,4.9,80.3,0,0,0,0
2020-12-14T05:19:00+09:00,0.9,��,2.3,��,4.9,80.3,0,0,0,0
2020-12-14T05:20:00+09:00,0.8,��,2.3,��,4.8,80.6,0,0,0,0
2020-12-14T05:21:00+09:00,0.7,��,1.7,���쓌,4.9,80.9,0,0,0,0
2020-12-14T05:22:00+09:00,0.7,��,1.6,��,4.9,81.2,0,0,0,0
2020-12-14T05:23:00+09:00,0.7,��,1.6,��,4.8,81.3,0,0,0,0
2020-12-14T05:24:00+09:00,0.6,���쓌,1.4,��,4.8,81.1,0,0,0,0
2020-12-14T05:25:00+09:00,0.6,���쓌,1.4,��,4.7,81.3,0,0,0,0
2020-12-14T05:26:00+09:00,0.5,���쓌,1.4,��,5,82.1,0,0,0,0
2020-12-14T05:27:00+09:00,0.5,��,1.4,��,5,82.2,0,0,0,0
2020-12-14T05:28:00+09:00,0.6,��,1.9,���쓌,5,81.5,0,0,0,0
2020-12-14T05:29:00+09:00,0.7,��,1.9,���쓌,5,81.5,0,0,0,0
2020-12-14T05:30:00+09:00,0.9,���쓌,1.9,���쓌,4.8,81,0,0,0,0
2020-12-14T05:31:00+09:00,0.9,���쓌,1.9,���쓌,4.8,81.3,0,0,0,0
2020-12-14T05:32:00+09:00,0.8,���쓌,1.9,���쓌,4.8,82.1,0,0,0,0
2020-12-14T05:33:00+09:00,0.8,���쓌,1.9,���쓌,4.7,81.9,0,0,0,0
2020-12-14T05:34:00+09:00,0.7,���쓌,1.9,���쓌,4.5,81.7,0,0,0,0
2020-12-14T05:35:00+09:00,0.7,���쓌,1.9,���쓌,4.4,81.7,0,0,0,0
2020-12-14T05:36:00+09:00,0.7,���쓌,1.9,���쓌,4.4,82.6,0,0,0,0
2020-12-14T05:37:00+09:00,0.7,���쓌,1.9,���쓌,4.7,83.8,0,0,0,0
2020-12-14T05:38:00+09:00,0.6,���쓌,1.7,���쓌,4.5,83.3,0,0,0,0
2020-12-14T05:39:00+09:00,0.6,��,1.7,���쓌,4.4,82.3,0,0,0,0
2020-12-14T05:40:00+09:00,0.5,���k��,1.5,�k�k��,4.3,82.7,0,0,0,0
2020-12-14T05:41:00+09:00,0.6,���k��,1.5,�k�k��,4.3,83.7,0,0,0,0
2020-12-14T05:42:00+09:00,0.6,�k��,1.6,�k�k��,4.3,83.9,0,0,0,0
2020-12-14T05:43:00+09:00,0.7,�k�k��,1.6,�k�k��,4.3,84.2,0,0,0,0
2020-12-14T05:44:00+09:00,0.8,�k�k��,1.6,�k�k��,4.3,84.4,0,0,0,0
2020-12-14T05:45:00+09:00,0.9,�k�k��,1.6,�k�k��,4.3,84.3,0,0,0,0
2020-12-14T05:46:00+09:00,0.9,�k�k��,1.6,�k�k��,4.2,84.5,0,0,0,0
2020-12-14T05:47:00+09:00,1,�k�k��,1.6,�k�k��,4.2,84.4,0,0,0,0
2020-12-14T05:48:00+09:00,1,�k�k��,1.6,�k�k��,4.2,84.5,0,0,0,0
2020-12-14T05:49:00+09:00,1,�k�k��,1.6,�k�k��,4.2,85,0,0,0,0
2020-12-14T05:50:00+09:00,1,�k��,1.6,�k�k��,4.2,85,0,0,0,0
2020-12-14T05:51:00+09:00,0.9,�k��,1.6,�k�k��,4.2,85.1,0,0,0,0
2020-12-14T05:52:00+09:00,0.9,���k��,1.6,�k�k��,4.2,85.3,0,0,0,0
2020-12-14T05:53:00+09:00,0.9,��,1.4,��,4.3,85.4,0,0,0,0
2020-12-14T05:54:00+09:00,0.9,���쓌,1.5,��쓌,4.4,85.5,0,0,0,0
2020-12-14T05:55:00+09:00,0.9,�쓌,1.5,��쓌,4.4,85.7,0,0,0,0
2020-12-14T05:56:00+09:00,0.9,�쓌,1.5,��쓌,4.5,85.1,0,0,0,0
2020-12-14T05:57:00+09:00,0.9,�쓌,1.5,��쓌,4.6,85.3,0,0,0,0
2020-12-14T05:58:00+09:00,0.9,��쓌,1.5,��쓌,4.6,84.9,0,0,0,0
2020-12-14T05:59:00+09:00,0.9,��쓌,1.5,��쓌,4.7,84.8,0,0,0,0
2020-12-14T06:00:00+09:00,0.9,��쓌,1.5,��쓌,4.9,85.1,0,0,0,0
2020-12-14T06:01:00+09:00,0.9,��쓌,1.5,��쓌,4.9,84.1,0,0,0,0
2020-12-14T06:02:00+09:00,0.8,��쓌,1.5,��쓌,4.8,83.5,0,0,0,0
2020-12-14T06:03:00+09:00,0.7,�쓌,1.5,��쓌,4.7,83.1,0,0,0,0
2020-12-14T06:04:00+09:00,0.7,�쓌,1.4,��쓌,4.6,83.2,0,0,0,0
2020-12-14T06:05:00+09:00,0.7,�쓌,1.8,��,4.5,83.6,0,0,0,0
2020-12-14T06:06:00+09:00,0.8,�쓌,1.8,��,4.5,83.7,0,0,0,0
2020-12-14T06:07:00+09:00,0.8,�쓌,1.8,��,4.5,84,0,0,0,0
2020-12-14T06:08:00+09:00,0.8,�쓌,1.8,��,4.6,84.4,0,0,0,0
2020-12-14T06:09:00+09:00,0.8,���쓌,1.8,��,4.7,84.2,0,0,0,0
2020-12-14T06:10:00+09:00,0.7,���쓌,1.8,��,4.7,83.7,0,0,0,0
2020-12-14T06:11:00+09:00,0.6,���쓌,1.8,��,4.7,83.6,0,0,0,0
2020-12-14T06:12:00+09:00,0.6,���쓌,1.8,��,4.7,83.4,0,0,0,0
2020-12-14T06:13:00+09:00,0.6,��,1.8,��,4.6,83.5,0,0,0,0
2020-12-14T06:14:00+09:00,0.5,��,1.8,��,4.6,83.5,0,0,0,0
2020-12-14T06:15:00+09:00,0.4,���쓌,1.7,���쓌,4.6,83.5,0,0,0,0
2020-12-14T06:16:00+09:00,0.4,��,1.4,���쓌,4.4,83,0,0,0,0
2020-12-14T06:17:00+09:00,0.3,�k��,1.4,���쓌,4.3,83.4,0,0,0,0
2020-12-14T06:18:00+09:00,0.2,�É�,0.8,���k��,4.3,84,0,0,0,0
2020-12-14T06:19:00+09:00,0.2,�É�,0.7,�k��,4.4,84.5,0,0,0,0
2020-12-14T06:20:00+09:00,0.2,�É�,0.7,�k��,4.5,84.9,0,0,0,0
2020-12-14T06:21:00+09:00,0.3,��쓌,1,�쓌,4.5,84.7,0,0,0,0
2020-12-14T06:22:00+09:00,0.4,��쓌,1.2,��쓌,4.5,84.2,0,0,0,0
2020-12-14T06:23:00+09:00,0.4,��쓌,1.2,��쓌,4.5,84.8,0,0,0,0
2020-12-14T06:24:00+09:00,0.5,��쓌,1.2,��쓌,4.5,84.2,0,0,0,0
2020-12-14T06:25:00+09:00,0.6,�쓌,1.2,��쓌,4.5,84.3,0,0,0,0
2020-12-14T06:26:00+09:00,0.6,�쓌,1.2,��쓌,4.4,84,0,0,0,0
2020-12-14T06:27:00+09:00,0.6,���쓌,1.2,��쓌,4.4,84.1,0,0,0,0
2020-12-14T06:28:00+09:00,0.7,���쓌,1.2,��쓌,4.4,84.4,0,0,0,0
2020-12-14T06:29:00+09:00,0.8,���쓌,1.3,���k��,4.3,84.5,0,0,0,0
2020-12-14T06:30:00+09:00,0.9,���쓌,1.6,�k��,4.2,84.2,0,0,0,0
2020-12-14T06:31:00+09:00,1,��,1.8,�k��,4.1,84.2,0,0,0,0
2020-12-14T06:32:00+09:00,1,��,1.8,�k��,4.1,84.7,0,0,0,0
2020-12-14T06:33:00+09:00,1.1,���k��,1.8,�k��,4.1,85.3,0,0,0,0
2020-12-14T06:34:00+09:00,1.1,���k��,1.8,�k��,4.1,85.6,0,0,0,0
2020-12-14T06:35:00+09:00,1.1,���k��,1.8,�k��,4.2,85.9,0,0,0,0
2020-12-14T06:36:00+09:00,1.1,�k��,1.8,�k��,4.1,85.7,0,0,0,0
2020-12-14T06:37:00+09:00,1.1,�k��,1.8,�k��,4.1,85.6,0,0,0,0
2020-12-14T06:38:00+09:00,1.1,�k�k��,1.8,�k��,4.1,86.1,0,0,0,0
2020-12-14T06:39:00+09:00,1.1,�k�k��,1.8,�k��,4.1,86.2,0,0,0,0
2020-12-14T06:40:00+09:00,1.1,�k�k��,1.8,�k��,4.2,86.3,0,0,0,0
2020-12-14T06:41:00+09:00,1.1,�k�k��,1.6,�k��,4.2,86.3,0,0,0,0
2020-12-14T06:42:00+09:00,1,�k�k��,1.4,�k�k��,4.3,86.5,0,0,0,0
2020-12-14T06:43:00+09:00,1,�k�k��,1.4,�k�k��,4.3,86,0,0,0,0
2020-12-14T06:44:00+09:00,1,�k�k��,1.4,�k�k��,4.4,85.8,0,0,0,0
2020-12-14T06:45:00+09:00,1,�k�k��,1.4,�k�k��,4.4,85.5,0,0,0,0